CAPE
5 3 2 1 0 0 0 0 0 0 0 0 0 0 0 0 0 0 0 0 0 0 0 0 0 0 0 0 0 0 0 0 0 0 0 0 0 0 0 0 0 0 0 0 0 0 0
4 2 2 2 1 0 0 0 0 0 0 0 0 0 0 0 0 0 0 0 0 0 0 0 0 0 0 0 0 0 0 0 0 0 0 0 0 0 0 0 0 0 0 0 0 0 0
4 2 2 2 1 0 0 0 0 0 0 0 0 0 0 0 0 0 0 0 0 0 0 0 0 0 0 0 0 0 0 0 0 0 0 0 0 0 0 0 0 0 0 0 0 0 0
4 2 2 1 0 0 0 0 0 0 0 0 0 0 0 0 0 0 0 0 0 0 0 0 0 0 0 0 0 0 0 0 0 0 0 0 0 0 0 0 0 0 0 0 0 0 0
3 3 1 1 0 0 0 0 0 0 0 0 0 0 0 0 0 0 0 0 0 0 0 0 0 0 0 0 0 0 0 0 0 0 0 0 0 0 0 0 0 0 0 0 0 0 0
2 2 2 1 1 0 0 0 0 0 0 0 0 0 0 0 0 0 0 0 0 0 0 0 0 0 0 0 0 0 0 0 0 0 0 0 0 0 0 0 0 0 0 0 0 0 0
2 2 2 1 1 0 0 0 0 0 0 0 0 0 0 0 0 0 0 0 0 0 0 0 0 0 0 0 0 0 0 0 0 0 0 0 0 0 0 0 0 0 0 0 0 0 0
2 1 2 1 1 1 0 0 0 0 0 0 0 0 0 0 0 0 0 0 0 0 0 0 0 0 0 0 0 0 0 0 0 0 0 0 0 0 0 0 0 0 0 0 0 0 0
2 1 1 1 1 1 0 0 0 0 0 0 0 0 0 0 0 0 0 0 0 0 0 0 0 0 0 0 0 0 0 0 0 0 0 0 0 0 0 0 0 0 0 0 0 0 0
1 1 1 1 1 1 0 0 0 0 0 0 0 0 0 0 0 0 0 0 0 0 0 0 0 0 0 0 0 0 0 0 0 0 0 0 0 0 0 0 0 0 0 0 0 0 0
0 0 1 2 1 1 0 0 0 0 0 0 0 0 0 0 0 0 0 0 0 0 0 0 0 0 0 0 0 0 0 0 0 0 0 0 0 0 0 0 0 0 0 0 0 0 0
0 0 0 0 1 1 1 0 0 0 0 0 0 0 0 0 0 0 0 0 0 0 0 0 0 0 0 0 0 0 0 0 0 0 0 0 0 0 0 0 0 0 0 0 0 0 0
0 0 0 0 0 1 1 0 0 0 0 0 0 0 0 0 0 0 0 0 6 588 0 0 0 0 0 0 0 0 0 0 0 0 0 0 0 0 0 0 0 0 0 0 0 0 0
0 0 0 0 0 0 1 1 0 0 0 0 0 0 0 0 0 0 0 0 1130 0 0 0 0 0 0 0 0 0 0 0 0 0 0 0 0 0 0 0 0 0 0 0 0 0 0
0 0 0 0 0 0 0 1 0 0 0 0 0 0 0 0 0 0 0 0 0 0 0 0 0 0 0 0 0 0 0 0 0 0 0 0 0 0 0 0 0 0 0 0 0 0 0
0 0 0 0 0 0 0 0 0 0 0 0 0 0 0 0 0 0 0 0 0 0 0 0 0 0 0 0 0 0 0 0 0 0 0 0 0 0 0 0 0 0 0 0 0 0 0
0 0 0 0 0 0 0 0 0 0 0 0 0 0 0 0 0 0 0 0 0 0 0 0 0 0 0 0 0 0 0 0 0 0 0 0 0 0 0 0 0 0 0 0 0 0 0
0 0 0 0 0 0 0 0 0 0 0 0 0 0 0 0 0 0 0 0 0 0 0 0 0 0 0 0 0 0 0 0 0 0 0 0 0 0 0 0 0 0 0 0 0 0 0
0 0 0 0 0 0 0 0 1 0 0 0 0 0 0 0 0 0 0 0 0 0 0 0 0 0 0 0 0 0 0 0 0 0 0 0 0 0 0 0 0 0 0 0 0 0 0
0 0 0 0 0 0 0 0 0 1 0 0 0 0 0 0 0 0 0 0 0 0 0 0 0 0 0 0 0 0 0 0 0 0 0 0 0 0 0 0 0 0 0 0 0 0 0
0 0 0 0 0 0 0 0 0 0 0 0 0 0 0 0 0 0 0 0 0 0 0 0 0 0 0 0 0 0 0 0 0 0 0 0 0 0 0 0 0 0 0 0 0 0 0
0 0 0 0 0 0 0 0 0 0 0 0 0 0 0 0 0 0 0 0 0 0 0 0 0 0 0 0 0 0 0 0 0 0 0 0 0 0 0 0 0 0 0 0 0 0 0
0 0 0 0 0 0 0 0 0 0 0 0 0 0 0 0 0 0 0 0 0 0 0 0 0 0 0 0 0 0 0 0 0 0 0 0 0 0 0 0 0 0 0 0 0 0 0
0 0 0 0 0 0 0 0 0 0 0 0 0 0 0 0 0 0 0 0 0 0 0 0 0 0 0 0 0 0 0 0 0 0 0 0 0 0 0 0 311 0 0 0 0 0 0
0 0 0 0 0 0 0 0 0 0 0 0 0 0 0 0 0 0 0 0 0 0 0 0 0 0 0 0 0 0 0 0 0 0 0 0 0 0 0 0 0 0 0 0 0 0 0
0 0 0 0 0 0 0 0 0 0 0 0 0 0 0 0 0 0 0 0 0 0 0 0 0 0 0 0 0 0 0 0 0 0 0 0 0 0 0 0 0 0 0 0 0 0 0
0 0 0 0 0 0 0 0 0 0 0 0 0 0 0 0 0 0 0 0 0 0 0 0 0 0 0 0 0 0 0 0 0 0 0 0 0 0 0 0 0 0 0 0 0 0 0
0 0 0 0 0 0 0 0 0 0 0 0 0 0 0 0 0 0 0 0 0 0 0 0 0 0 0 0 0 0 0 0 0 0 0 0 0 0 0 0 0 0 0 0 0 0 0
0 0 0 0 0 0 0 0 0 0 0 0 0 0 0 0 0 0 0 0 0 0 0 0 0 0 0 0 0 0 0 0 0 0 0 0 0 0 0 0 0 0 0 0 0 0 0
CIN
-0 -0 -0 -0 -0 -0 -0 -0 -0 -0 -0 -0 -0 -0 -0 -0 -0 -0 -0 -0 -0 -0 -0 -0 -0 -0 -0 -0 -0 -0 -0 -0 -0 -0 -0 -0 -0 -0 -0 -0 -0 -0 -0 -0 -0 -0 -0
-0 -0 -0 -0 -0 -0 -0 -0 -0 -0 -0 -0 -0 -0 -0 -0 -0 -0 -0 -0 -0 -0 -0 -0 -0 -0 -0 -0 -0 -0 -0 -0 -0 -0 -0 -0 -0 -0 -0 -0 -0 -0 -0 -0 -0 -0 -0
-0 -0 -0 -0 -0 -0 -0 -0 -0 -0 -0 -0 -0 -0 -0 -0 -0 -0 -0 -0 -0 -0 -0 -0 -0 -0 -0 -0 -0 -0 -0 -0 -0 -0 -0 -0 -0 -0 -0 -0 -0 -0 -0 -0 -0 -0 -0
-0 -0 -0 -0 -0 -0 -0 -0 -0 -0 -0 -0 -0 -0 -0 -0 -0 -0 -0 -0 -0 -0 -0 -0 -0 -0 -0 -0 -0 -0 -0 -0 -0 -0 -0 -0 -0 -0 -0 -0 -0 -0 -0 -0 -0 -0 -0
-0 -0 -0 -0 -0 -0 -0 -0 -0 -0 -0 -0 -0 -0 -0 -0 -0 -0 -0 -0 -0 -0 -0 -0 -0 -0 -0 -0 -0 -0 -0 -0 -0 -0 -0 -0 -0 -0 -0 -0 -0 -0 -0 -0 -0 -0 -0
-0 -0 -0 -0 -0 -0 -0 -0 -0 -0 -0 -0 -0 -0 -0 -0 -0 -0 -0 -0 -0 -0 -0 -0 -0 -0 -0 -0 -0 -0 -0 -0 -0 -0 -0 -0 -0 -0 -0 -0 -0 -0 -0 -0 -0 -0 -0
-0 -0 -0 -0 -0 -0 -0 -0 -0 -0 -0 -0 -0 -0 -0 -0 -0 -0 -0 -0 -0 -0 -0 -0 -0 -0 -0 -0 -0 -0 -0 -0 -0 -0 -0 -0 -0 -0 -0 -0 -0 -0 -0 -0 -0 -0 -0
-0 -0 -0 -0 -0 -0 -0 -0 -0 -0 -0 -0 -0 -0 -0 -0 -0 -0 -0 -0 -0 -0 -0 -0 -0 -0 -0 -0 -0 -0 -0 -0 -0 -0 -0 -0 -0 -0 -0 -0 -0 -0 -0 -0 -0 -0 -0
-0 -0 -0 -0 -0 -0 -0 -0 -0 -0 -0 -0 -0 -0 -0 -0 -0 -0 -0 -0 -0 -0 -0 -0 -0 -0 -0 -0 -0 -0 -0 -0 -0 -0 -0 -0 -0 -0 -0 -0 -0 -0 -0 -0 -0 -0 -0
-0 -0 -0 -0 -0 -0 -0 -0 -0 -0 -0 -0 -0 -0 -0 -0 -0 -0 -0 -0 -0 -0 -0 -0 -0 -0 -0 -0 -0 -0 -0 -0 -0 -0 -0 -0 -0 -0 -0 -0 -0 -0 -0 -0 -0 -0 -0
-0 -0 -0 -0 -0 -0 -0 -0 -0 -0 -0 -0 -0 -0 -0 -0 -0 -0 -0 -0 -0 -0 -0 -0 -0 -0 -0 -0 -0 -0 -0 -0 -0 -0 -0 -0 -0 -0 -0 -0 -0 -0 -0 -0 -0 -0 -0
-0 -0 -0 -0 -0 -0 -0 -0 -0 -0 -0 -0 -0 -0 -0 -0 -0 -0 -0 -0 -0 -0 -0 -0 -0 -0 -0 -0 -0 -0 -0 -0 -0 -0 -0 -0 -0 -0 -0 -0 -0 -0 -0 -0 -0 -0 -0
-0 -0 -0 -0 -0 -0 -0 -0 -0 -0 -0 -0 -0 -0 -0 -0 -0 -0 -0 -0 -23 -68 -0 -0 -0 -0 -0 -0 -0 -0 -0 -0 -0 -0 -0 -0 -0 -0 -0 -0 -0 -0 -0 -0 -0 -0 -0
-0 -0 -0 -0 -0 -0 -0 -0 -0 -0 -0 -0 -0 -0 -0 -0 -0 -0 -0 -0 -7 -0 -0 -0 -0 -0 -0 -0 -0 -0 -0 -0 -0 -0 -0 -0 -0 -0 -0 -0 -0 -0 -0 -0 -0 -0 -0
-0 -0 -0 -0 -0 -0 -0 -0 -0 -0 -0 -0 -0 -0 -0 -0 -0 -0 -0 -0 -0 -0 -0 -0 -0 -0 -0 -0 -0 -0 -0 -0 -0 -0 -0 -0 -0 -0 -0 -0 -0 -0 -0 -0 -0 -0 -0
-0 -0 -0 -0 -0 -0 -0 -0 -0 -0 -0 -0 -0 -0 -0 -0 -0 -0 -0 -0 -0 -0 -0 -0 -0 -0 -0 -0 -0 -0 -0 -0 -0 -0 -0 -0 -0 -0 -0 -0 -0 -0 -0 -0 -0 -0 -0
-0 -0 -0 -0 -0 -0 -0 -0 -0 -0 -0 -0 -0 -0 -0 -0 -0 -0 -0 -0 -0 -0 -0 -0 -0 -0 -0 -0 -0 -0 -0 -0 -0 -0 -0 -0 -0 -0 -0 -0 -0 -0 -0 -0 -0 -0 -0
-0 -0 -0 -0 -0 -0 -0 -0 -0 -0 -0 -0 -0 -0 -0 -0 -0 -0 -0 -0 -0 -0 -0 -0 -0 -0 -0 -0 -0 -0 -0 -0 -0 -0 -0 -0 -0 -0 -0 -0 -0 -0 -0 -0 -0 -0 -0
-0 -0 -0 -0 -0 -0 -0 -0 -0 -0 -0 -0 -0 -0 -0 -0 -0 -0 -0 -0 -0 -0 -0 -0 -0 -0 -0 -0 -0 -0 -0 -0 -0 -0 -0 -0 -0 -0 -0 -0 -0 -0 -0 -0 -0 -0 -0
-0 -0 -0 -0 -0 -0 -0 -0 -0 -0 -0 -0 -0 -0 -0 -0 -0 -0 -0 -0 -0 -0 -0 -0 -0 -0 -0 -0 -0 -0 -0 -0 -0 -0 -0 -0 -0 -0 -0 -0 -0 -0 -0 -0 -0 -0 -0
-0 -0 -0 -0 -0 -0 -0 -0 -0 -0 -0 -0 -0 -0 -0 -0 -0 -0 -0 -0 -0 -0 -0 -0 -0 -0 -0 -0 -0 -0 -0 -0 -0 -0 -0 -0 -0 -0 -0 -0 -0 -0 -0 -0 -0 -0 -0
-0 -0 -0 -0 -0 -0 -0 -0 -0 -0 -0 -0 -0 -0 -0 -0 -0 -0 -0 -0 -0 -0 -0 -0 -0 -0 -0 -0 -0 -0 -0 -0 -0 -0 -0 -0 -0 -0 -0 -0 -0 -0 -0 -0 -0 -0 -0
-0 -0 -0 -0 -0 -0 -0 -0 -0 -0 -0 -0 -0 -0 -0 -0 -0 -0 -0 -0 -0 -0 -0 -0 -0 -0 -0 -0 -0 -0 -0 -0 -0 -0 -0 -0 -0 -0 -0 -0 -0 -0 -0 -0 -0 -0 -0
-0 -0 -0 -0 -0 -0 -0 -0 -0 -0 -0 -0 -0 -0 -0 -0 -0 -0 -0 -0 -0 -0 -0 -0 -0 -0 -0 -0 -0 -0 -0 -0 -0 -0 -0 -0 -0 -0 -0 -0 -17 -2 -0 -0 -0 -0 -0
-0 -0 -0 -0 -0 -0 -0 -0 -0 -0 -0 -0 -0 -0 -0 -0 -0 -0 -0 -0 -0 -0 -0 -0 -0 -0 -0 -0 -0 -0 -0 -0 -0 -0 -0 -0 -0 -0 -0 -0 -0 -0 -0 -0 -0 -0 -0
-0 -0 -0 -0 -0 -0 -0 -0 -0 -0 -0 -0 -0 -0 -0 -0 -0 -0 -0 -0 -0 -0 -0 -0 -0 -0 -0 -0 -0 -0 -0 -0 -0 -0 -0 -0 -0 -0 -0 -0 -0 -0 -0 -0 -0 -0 -0
-0 -0 -0 -0 -0 -0 -0 -0 -0 -0 -0 -0 -0 -0 -0 -0 -0 -0 -0 -0 -0 -0 -0 -0 -0 -0 -0 -0 -0 -0 -0 -0 -0 -0 -0 -0 -0 -0 -0 -0 -0 -0 -0 -0 -0 -0 -0
-0 -0 -0 -0 -0 -0 -0 -0 -0 -0 -0 -0 -0 -0 -0 -0 -0 -0 -0 -0 -0 -0 -0 -0 -0 -0 -0 -0 -0 -0 -0 -0 -0 -0 -0 -0 -0 -0 -0 -0 -0 -0 -0 -0 -0 -0 -0
-0 -0 -0 -0 -0 -0 -0 -0 -0 -0 -0 -0 -0 -0 -0 -0 -0 -0 -0 -0 -0 -0 -0 -0 -0 -0 -0 -0 -0 -0 -0 -0 -0 -0 -0 -0 -0 -0 -0 -0 -0 -0 -0 -0 -0 -0 -0
Wind_Speed
13 13 13 13 12 11 11 11 10 9 9 8 8 9 9 8 9 10 9 8 8 10 12 9 9 4 5 20 12 17 18 15 7 10 14 18 20 17 16 21 25 21 15 13 11 8 9
13 13 13 13 13 12 12 11 11 10 10 9 8 8 8 9 10 8 8 8 7 8 10 13 9 8 12 29 11 14 18 20 21 18 14 9 18 24 17 9 8 15 17 14 9 8 6
14 13 13 13 13 13 12 12 11 10 9 8 8 8 9 9 8 7 7 8 8 8 9 8 3 10 36 14 7 8 16 19 17 17 18 10 5 6 12 22 19 19 16 10 5 4 3
14 14 13 13 13 12 12 12 11 10 9 8 8 8 10 9 8 6 6 7 8 7 6 7 4 15 15 4 9 17 10 18 17 18 21 18 19 21 10 20 9 7 3 2 6 2 4
14 14 14 13 13 12 12 12 11 10 9 9 9 9 10 9 8 8 6 7 5 7 6 2 6 8 10 3 13 12 14 9 14 17 16 9 19 17 12 7 9 3 5 5 6 2 3
15 15 15 14 13 12 12 12 11 11 10 9 9 10 9 9 8 4 2 3 5 4 3 3 7 5 9 9 7 5 7 5 5 1 5 10 9 14 12 5 8 8 5 1 4 5 5
15 15 15 14 13 13 12 12 11 10 10 10 10 10 11 9 7 6 4 4 4 7 20 17 14 14 5 5 12 17 4 4 7 12 10 16 14 15 16 12 8 5 5 6 1 4 8
16 16 15 15 14 13 13 12 11 10 11 11 11 10 10 9 9 4 3 5 4 4 15 12 9 13 9 2 5 19 16 8 13 10 5 9 19 10 7 8 7 5 5 7 1 2 6
16 16 16 16 15 14 13 13 12 11 10 11 11 11 9 6 3 7 13 8 3 3 4 7 6 7 6 11 10 15 10 4 15 20 20 16 7 2 3 4 4 2 12 10 6 6 7
16 16 17 16 16 15 14 13 12 11 11 10 11 10 12 5 0 2 5 4 2 2 2 7 6 6 5 2 7 9 6 5 3 6 7 10 4 1 1 5 8 4 9 6 4 6 5
16 16 16 17 16 15 14 13 12 11 11 10 11 9 9 6 4 2 5 5 1 4 1 4 4 3 5 6 2 8 7 9 8 5 7 6 2 3 5 5 7 6 6 5 4 7 7
15 16 17 17 17 16 15 13 12 11 10 10 10 10 6 1 3 4 6 3 4 4 4 3 1 1 2 8 4 2 4 6 1 5 12 7 2 3 6 3 4 8 6 6 6 5 6
15 15 16 17 17 17 16 14 12 11 10 9 9 10 6 3 3 7 4 4 1 3 1 4 2 1 4 3 3 3 3 7 4 4 2 4 3 2 4 7 5 10 9 3 4 2 6
15 16 16 17 17 17 17 16 13 11 10 8 6 5 4 5 5 6 3 4 4 2 2 2 3 4 1 1 2 1 2 2 5 3 1 4 6 1 2 4 6 6 8 5 6 7 9
15 15 16 16 18 18 17 17 15 12 10 8 5 2 2 6 7 3 4 0 1 3 6 8 6 5 5 4 2 3 2 2 3 5 5 5 3 4 1 0 5 4 3 4 5 2 6
16 17 16 16 17 18 17 17 16 14 11 8 1 1 3 9 7 3 4 1 1 2 2 4 4 3 3 4 4 3 3 2 3 2 3 2 4 2 4 3 3 5 3 4 3 6 7
16 16 16 16 17 17 18 18 17 16 13 5 0 2 3 8 4 3 1 3 2 2 1 2 3 3 1 2 3 2 2 4 2 3 2 1 4 5 3 7 1 5 4 1 4 3 5
14 16 16 17 17 17 18 19 18 17 16 5 1 1 4 5 2 1 1 2 1 4 2 1 2 1 3 4 3 3 2 1 3 4 1 2 4 5 2 3 3 5 4 5 4 4 3
13 14 15 16 17 17 17 18 19 16 11 2 1 2 2 3 2 1 3 3 1 4 3 3 3 2 1 3 4 4 3 2 4 4 2 4 3 6 8 6 4 7 7 7 3 1 7
12 13 14 16 17 18 18 18 18 17 10 4 2 2 3 2 1 1 3 3 4 1 2 1 1 2 4 5 4 2 5 4 4 3 2 3 4 7 8 6 4 5 6 10 9 6 1
10 11 12 14 16 17 18 19 19 17 11 3 2 1 2 2 3 2 2 2 5 5 3 5 4 9 5 5 5 5 4 5 5 7 4 4 6 6 13 15 13 14 15 13 17 11 8
8 9 11 12 14 16 18 18 19 19 16 3 2 2 2 3 4 6 4 5 8 4 6 5 7 3 8 6 4 2 6 5 4 8 6 4 3 6 9 2 4 12 14 15 17 18 17
8 9 10 11 12 16 17 17 18 20 11 2 1 2 4 3 4 4 4 4 4 5 5 2 4 5 8 7 2 3 2 4 0 4 9 5 4 4 6 2 11 12 11 18 11 11 9
4 7 9 10 12 13 16 16 17 18 13 3 2 3 3 3 6 5 4 5 7 9 2 4 3 5 4 7 8 5 3 1 5 3 4 5 5 3 7 10 4 3 2 7 13 11 20
4 5 7 8 10 10 12 14 15 16 16 3 1 3 2 3 5 6 8 4 4 5 5 4 3 3 7 3 3 4 3 3 4 2 6 5 5 4 4 5 14 2 7 7 9 9 11
7 4 6 7 7 8 9 11 13 14 16 3 3 3 3 3 5 1 5 8 5 5 6 4 4 4 3 3 2 3 4 2 5 5 4 6 6 6 2 5 5 4 6 3 2 8 7
8 7 6 6 7 7 8 9 11 12 13 3 3 3 3 2 2 4 4 4 4 4 2 5 7 6 3 4 3 5 6 1 5 5 7 5 6 11 9 6 10 7 9 6 5 5 9
10 8 8 7 5 6 6 7 9 11 11 4 3 3 4 2 3 4 3 3 4 5 5 7 6 4 5 6 5 4 5 3 4 2 5 9 8 6 6 6 11 10 10 8 4 3 6
11 10 8 8 6 6 5 6 8 9 10 5 1 1 3 3 3 2 5 5 5 7 2 8 3 5 6 5 4 2 4 4 5 5 7 7 8 3 10 8 1 17 11 11 8 11 8
Wind_Direction
36 37 38 38 39 41 43 45 43 34 31 24 17 15 13 4 8 356 347 16 13 20 34 38 26 22 79 71 34 351 336 4 13 52 74 89 87 84 88 97 88 94 102 100 104 102 84
38 37 36 35 36 37 40 38 36 31 26 19 14 10 5 3 358 350 1 38 40 33 39 50 26 321 80 69 352 5 15 37 51 75 72 88 92 97 79 73 65 115 112 111 105 89 96
36 36 35 35 35 35 34 31 29 25 21 17 12 3 356 353 354 0 22 50 66 41 58 68 345 51 63 62 17 35 49 51 50 61 81 76 94 85 99 95 110 123 110 117 94 87 116
36 33 34 33 31 33 33 31 27 22 14 11 6 358 352 346 356 18 39 53 54 58 17 59 13 65 76 62 15 39 47 67 68 76 76 77 87 80 85 123 134 119 187 217 85 169 120
39 34 32 31 29 28 29 27 25 20 12 6 360 352 351 345 3 9 30 55 39 34 35 236 59 75 63 356 28 39 26 70 83 85 80 82 72 87 147 156 135 129 41 42 145 33 301
40 36 32 29 24 25 27 24 19 13 7 2 356 348 349 353 1 16 68 47 26 89 358 236 42 85 43 33 8 348 35 72 48 146 70 43 72 75 48 357 44 14 9 75 345 60 299
38 37 34 30 26 21 22 22 17 7 4 359 354 349 343 352 22 25 209 247 196 49 47 63 63 84 111 73 60 34 22 34 53 59 66 45 77 57 51 49 49 23 355 337 344 21 301
38 35 33 29 27 23 18 16 12 8 2 358 353 350 343 344 3 8 64 64 40 70 81 62 76 77 65 33 44 29 29 67 53 69 110 101 57 55 47 40 39 30 337 11 192 360 281
36 34 31 27 25 23 18 14 10 4 3 360 354 349 338 334 312 41 71 57 354 258 71 55 40 37 21 42 39 21 20 43 50 66 58 67 83 74 4 56 304 38 358 347 318 324 244
36 35 30 27 22 21 18 14 9 5 359 0 356 349 346 285 89 1 65 355 315 253 148 30 30 54 13 4 67 22 26 20 82 87 73 74 114 98 340 53 347 308 359 311 277 276 355
34 34 33 25 23 18 16 12 10 5 358 360 358 352 346 17 112 54 22 328 213 230 167 31 54 15 46 61 116 57 37 57 60 76 249 82 115 15 24 12 343 5 320 291 267 276 298
33 32 32 29 22 19 14 11 9 4 360 358 1 358 323 80 66 31 330 299 247 224 88 118 40 66 127 50 62 98 62 65 25 66 64 90 91 338 12 313 292 321 270 235 244 261 223
27 31 31 29 25 18 13 9 7 5 358 1 5 29 43 2 46 336 301 229 247 71 134 141 120 125 88 70 89 15 51 58 18 254 85 161 109 98 317 293 201 327 316 269 233 247 2
32 24 27 25 25 22 14 8 1 3 3 357 15 4 35 53 341 321 252 232 84 100 188 128 150 125 131 162 101 98 189 108 67 329 174 327 171 306 29 11 330 12 348 13 297 343 327
32 24 21 26 20 19 17 9 359 355 3 357 291 55 55 11 340 291 251 159 89 159 139 166 162 208 155 172 256 211 34 59 48 1 347 321 121 137 27 326 304 38 1 23 277 197 254
25 22 18 20 22 17 14 12 3 351 351 346 104 107 50 336 329 262 245 202 86 53 123 194 227 251 178 156 211 235 191 120 130 7 332 89 261 196 120 196 104 305 77 232 140 326 324
19 21 15 15 15 16 14 10 3 352 338 313 201 188 39 336 271 229 211 88 133 129 252 238 228 180 214 198 235 213 150 140 196 147 302 278 273 121 201 203 254 171 195 186 280 296 316
25 18 12 7 12 14 14 8 2 354 337 278 172 185 21 312 186 10 138 58 37 152 171 159 274 258 231 180 209 233 232 22 150 177 258 96 298 266 346 107 303 277 272 241 286 112 233
21 18 13 8 4 7 14 10 2 356 354 289 88 71 103 287 137 170 131 134 219 172 207 200 199 252 192 209 238 227 195 82 156 202 223 160 208 282 177 181 188 235 209 234 246 265 233
18 15 12 9 4 2 7 12 7 1 13 306 212 118 114 113 41 214 171 178 177 160 163 184 156 193 185 207 212 216 185 156 189 211 88 210 251 262 281 340 316 227 220 218 205 243 210
4 7 9 3 3 2 5 7 8 2 342 278 343 62 16 195 194 176 217 181 188 192 214 208 200 229 216 222 215 224 179 167 189 153 186 261 273 268 273 276 271 261 255 225 222 230 246
354 359 1 4 4 5 2 6 6 1 345 252 210 198 176 120 152 182 162 197 225 181 190 200 239 209 212 241 253 237 192 210 212 174 206 189 278 296 282 293 268 257 247 239 236 228 251
343 347 356 1 6 5 3 3 7 4 339 293 116 136 280 143 176 200 198 202 201 186 185 295 246 206 220 252 285 17 42 7 73 200 194 208 276 300 276 246 283 274 241 210 209 210 200
330 336 343 358 3 9 2 357 7 11 5 325 21 282 231 212 224 224 199 205 209 203 240 154 203 233 77 120 119 123 115 114 184 171 237 209 224 276 288 308 253 69 158 199 208 243 217
279 313 328 348 351 2 4 354 1 10 6 331 27 288 258 244 228 216 215 210 160 154 176 173 129 42 155 184 245 257 199 216 188 212 200 248 234 257 275 283 297 252 184 196 200 282 236
264 274 306 330 340 351 0 357 356 8 13 315 47 317 295 286 229 196 181 198 201 195 166 130 104 136 205 228 202 225 246 281 174 167 193 197 246 246 213 264 264 50 142 164 207 265 170
251 265 279 304 326 336 352 355 353 1 16 345 55 337 280 262 176 190 202 191 166 172 143 143 159 170 238 198 201 229 245 346 231 210 176 186 208 226 224 258 272 261 154 162 242 16 174
239 243 262 275 301 315 336 346 348 353 9 348 75 15 305 266 271 229 222 178 160 206 184 130 150 192 181 206 215 216 236 194 254 211 191 190 185 201 200 224 268 139 145 218 334 207 213
234 236 245 261 271 288 314 332 342 346 357 335 182 92 311 243 299 301 276 286 320 343 207 179 327 151 165 180 216 231 216 219 247 256 199 236 216 224 209 222 193 192 239 224 285 282 258